ISR701 LLBG-LROP

Flight info

Callsign ISR701
Flight time N/A
Altitude 38000
Route DAFNA W13 VELOX N71 DESPO DCT VOLBE DCT VESAR UL619 MAKOL L619 WRN L744 ELRUR L602 KOMAN/N0328F100 L622 OBUGA
Aircraft A320/M-SDE2FGHIJ1LORVWY/L

Departure

Time 2026-05-01 13:07
Airport Ben Gurion International Airport (LLBG)

Arrival

Time N/A
Airport Bucharest Henri Coandă International Airport (LROP)
Time Latitude Longitude Altitude Speed Heading
2026-05-01 12:47 32.00357 34.87963 120 ft 0 kts 121°
2026-05-01 12:54 32.00365 34.87948 120 ft 4 kts 121°
2026-05-01 12:54 32.00378 34.87921 116 ft 4 kts 120°
2026-05-01 12:55 32.00389 34.87878 118 ft 4 kts 36°
2026-05-01 12:55 32.00382 34.87872 120 ft 3 kts 31°
2026-05-01 12:55 32.00405 34.87888 120 ft 4 kts 31°
2026-05-01 12:56 32.00416 34.87896 120 ft 0 kts 31°
2026-05-01 12:58 32.00428 34.87904 116 ft 6 kts 31°
2026-05-01 12:59 32.00550 34.87931 120 ft 12 kts 302°
2026-05-01 12:59 32.00621 34.87941 120 ft 13 kts 30°
2026-05-01 12:59 32.00815 34.88082 116 ft 20 kts 31°
2026-05-01 13:00 32.01078 34.88270 117 ft 24 kts 32°
2026-05-01 13:00 32.01224 34.88376 121 ft 25 kts 33°
2026-05-01 13:01 32.01463 34.88700 119 ft 22 kts 66°
2026-05-01 13:01 32.01503 34.88880 116 ft 24 kts 80°
2026-05-01 13:01 32.01598 34.89164 117 ft 16 kts 348°
2026-05-01 13:02 32.01718 34.89136 118 ft 15 kts 351°
2026-05-01 13:07 32.08913 34.62734 10095 ft 289 kts 321°
2026-05-01 13:07 32.10583 34.61286 10481 ft 309 kts 321°
2026-05-01 13:07 32.12377 34.59723 10662 ft 332 kts 321°
2026-05-01 13:08 32.14276 34.58067 11131 ft 344 kts 321°
2026-05-01 13:08 32.16216 34.56382 11807 ft 349 kts 321°
2026-05-01 13:08 32.18181 34.54678 12501 ft 352 kts 321°
2026-05-01 13:08 32.20163 34.52958 13187 ft 355 kts 320°
2026-05-01 13:09 32.22158 34.51224 13876 ft 358 kts 320°
2026-05-01 13:09 32.24169 34.49473 14558 ft 360 kts 320°
2026-05-01 13:09 32.26189 34.47707 15199 ft 363 kts 320°
2026-05-01 13:09 32.28217 34.45927 15820 ft 366 kts 320°
2026-05-01 13:10 32.30267 34.44124 16432 ft 368 kts 320°
2026-05-01 13:10 32.32330 34.42310 17052 ft 371 kts 320°
2026-05-01 13:10 32.34408 34.40489 17660 ft 373 kts 319°
2026-05-01 13:10 32.36505 34.38656 18278 ft 376 kts 319°
2026-05-01 13:11 32.38615 34.36812 18902 ft 378 kts 319°
2026-05-01 13:11 32.40765 34.34930 19547 ft 381 kts 319°
2026-05-01 13:11 32.42901 34.33057 20157 ft 384 kts 319°
2026-05-01 13:11 32.45053 34.31168 20749 ft 386 kts 319°
2026-05-01 13:12 32.47217 34.29267 21320 ft 389 kts 319°
2026-05-01 13:12 32.49397 34.27351 21853 ft 391 kts 319°
2026-05-01 13:12 32.51593 34.25443 22368 ft 395 kts 321°
2026-05-01 13:12 32.54025 34.23861 22861 ft 404 kts 332°
2026-05-01 13:13 32.56722 34.22828 23336 ft 413 kts 342°
2026-05-01 13:13 32.59598 34.22374 23787 ft 421 kts 349°
2026-05-01 13:13 32.62528 34.22053 24241 ft 423 kts 349°
2026-05-01 13:13 32.65467 34.21728 24661 ft 426 kts 349°
2026-05-01 13:14 32.68428 34.21396 25069 ft 428 kts 349°
2026-05-01 13:14 32.71398 34.21061 25498 ft 430 kts 348°
2026-05-01 13:14 32.74380 34.20722 25872 ft 432 kts 349°
2026-05-01 13:14 32.77382 34.20379 26249 ft 434 kts 348°
2026-05-01 13:15 32.80396 34.20034 26623 ft 436 kts 348°
2026-05-01 13:15 32.83426 34.19686 26988 ft 439 kts 348°
2026-05-01 13:15 32.86472 34.19338 27361 ft 440 kts 348°
2026-05-01 13:15 32.89530 34.18988 27714 ft 443 kts 348°
2026-05-01 13:16 32.92602 34.18636 28079 ft 445 kts 348°
2026-05-01 13:16 32.95686 34.18281 28437 ft 446 kts 348°
2026-05-01 13:16 32.98782 34.17921 28775 ft 448 kts 348°
2026-05-01 13:17 33.08128 34.16842 29870 ft 450 kts 348°
2026-05-01 13:17 33.11237 34.16489 30339 ft 448 kts 348°
2026-05-01 13:18 33.17407 34.15785 31245 ft 443 kts 348°
2026-05-01 13:18 33.20468 34.15435 31676 ft 442 kts 348°
2026-05-01 13:18 33.23532 34.15084 32125 ft 441 kts 348°
2026-05-01 13:18 33.26578 34.14734 32565 ft 439 kts 348°
2026-05-01 13:19 33.28627 34.14496 32850 ft 438 kts 348°
2026-05-01 13:19 33.31657 34.14145 33276 ft 436 kts 348°
2026-05-01 13:19 33.37682 34.13445 34119 ft 433 kts 348°
2026-05-01 13:20 33.40678 34.13095 34519 ft 432 kts 347°
2026-05-01 13:20 33.43668 34.12749 34864 ft 432 kts 347°
2026-05-01 13:20 33.46657 34.12405 35193 ft 431 kts 347°
2026-05-01 13:21 33.52624 34.11716 35825 ft 431 kts 347°
2026-05-01 13:21 33.55609 34.11367 36107 ft 431 kts 347°
2026-05-01 13:21 33.58597 34.11017 36391 ft 432 kts 347°
2026-05-01 13:21 33.61589 34.10667 36658 ft 432 kts 347°
2026-05-01 13:22 33.64575 34.10321 36970 ft 430 kts 347°
2026-05-01 13:22 33.67550 34.09978 37290 ft 428 kts 346°
2026-05-01 13:22 33.70509 34.09637 37623 ft 426 kts 346°
2026-05-01 13:22 33.73453 34.09299 37863 ft 426 kts 346°
2026-05-01 13:23 33.79400 34.08738 37947 ft 436 kts 353°
2026-05-01 13:23 33.82456 34.09092 37946 ft 447 kts
2026-05-01 13:23 33.85489 34.10099 37944 ft 458 kts 13°
2026-05-01 13:24 33.91443 34.12932 37945 ft 460 kts 14°
2026-05-01 13:25 34.00429 34.17152 37936 ft 460 kts 13°
2026-05-01 13:25 34.06394 34.19958 37936 ft 460 kts 13°
2026-05-01 13:26 34.12360 34.22767 37940 ft 461 kts 14°
2026-05-01 13:26 34.18331 34.25585 37942 ft 461 kts 14°
2026-05-01 13:27 34.24300 34.28413 37941 ft 461 kts 14°
2026-05-01 13:27 34.33276 34.32662 37949 ft 462 kts 14°
2026-05-01 13:28 34.42306 34.36625 37945 ft 453 kts
2026-05-01 13:29 34.48434 34.37114 37931 ft 434 kts 347°
2026-05-01 13:29 34.54299 34.35847 37924 ft 427 kts 341°
2026-05-01 13:31 34.71864 34.31561 37925 ft 430 kts 341°
2026-05-01 13:32 34.86596 34.27927 37932 ft 432 kts 341°
2026-05-01 13:33 35.01324 34.24278 37935 ft 432 kts 341°
2026-05-01 13:34 35.13123 34.21334 37925 ft 433 kts 341°
2026-05-01 13:35 35.21981 34.19127 37931 ft 434 kts 342°
2026-05-01 13:36 35.30853 34.16922 37933 ft 434 kts 342°
2026-05-01 13:36 35.39728 34.14693 37937 ft 434 kts 342°
2026-05-01 13:37 35.45649 34.13207 37940 ft 435 kts 342°
2026-05-01 13:37 35.51575 34.11720 37940 ft 435 kts 342°
2026-05-01 13:38 35.60475 34.09485 37939 ft 435 kts 342°
2026-05-01 13:39 35.66444 34.07975 37944 ft 435 kts 342°
2026-05-01 13:39 35.72375 34.06473 37945 ft 435 kts 342°
2026-05-01 13:40 35.78300 34.04971 37940 ft 435 kts 342°
2026-05-01 13:40 35.84237 34.03468 37942 ft 435 kts 342°
2026-05-01 13:41 35.90136 34.01854 37942 ft 431 kts 336°
2026-05-01 13:41 35.95439 33.98705 37937 ft 420 kts 323°
2026-05-01 13:42 36.00416 33.94932 37938 ft 420 kts 323°
2026-05-01 13:42 36.05405 33.91157 37936 ft 420 kts 323°
2026-05-01 13:43 36.10396 33.87384 37940 ft 421 kts 323°
2026-05-01 13:43 36.15384 33.83600 37942 ft 420 kts 323°
2026-05-01 13:44 36.20371 33.79813 37943 ft 421 kts 323°
2026-05-01 13:44 36.25360 33.76019 37945 ft 421 kts 323°
2026-05-01 13:45 36.30345 33.72220 37942 ft 421 kts 323°
2026-05-01 13:45 36.35339 33.68416 37941 ft 421 kts 323°
2026-05-01 13:46 36.40363 33.64592 37937 ft 420 kts 323°
2026-05-01 13:46 36.45305 33.60805 37929 ft 420 kts 323°
2026-05-01 13:47 36.50310 33.56955 37943 ft 420 kts 323°
2026-05-01 13:47 36.55281 33.53145 37948 ft 420 kts 323°
2026-05-01 13:48 36.60251 33.49319 37950 ft 420 kts 323°
2026-05-01 13:48 36.65220 33.45494 37952 ft 420 kts 323°
2026-05-01 13:49 36.70181 33.41671 37961 ft 419 kts 323°
2026-05-01 13:49 36.75139 33.37836 37962 ft 419 kts 322°
2026-05-01 13:50 36.80104 33.33997 37956 ft 420 kts 322°
2026-05-01 13:50 36.85045 33.30136 37955 ft 417 kts 319°
2026-05-01 13:51 36.89209 33.25251 37964 ft 408 kts 308°
2026-05-01 13:51 36.93051 33.20019 37962 ft 409 kts 308°
2026-05-01 13:52 36.96899 33.14786 37959 ft 409 kts 308°
2026-05-01 13:52 37.00746 33.09556 37967 ft 408 kts 308°
2026-05-01 13:53 37.04584 33.04321 37966 ft 408 kts 308°
2026-05-01 13:53 37.09715 32.97299 37973 ft 409 kts 308°
2026-05-01 13:54 37.13551 32.92041 37970 ft 408 kts 308°
2026-05-01 13:54 37.17379 32.86780 37966 ft 408 kts 307°
2026-05-01 13:55 37.21200 32.81521 37967 ft 408 kts 307°
2026-05-01 13:55 37.25021 32.76260 37970 ft 408 kts 307°
2026-05-01 13:56 37.28836 32.70994 37972 ft 407 kts 307°
2026-05-01 13:56 37.32649 32.65731 37972 ft 407 kts 308°
2026-05-01 13:57 37.36463 32.60469 37972 ft 407 kts 307°
2026-05-01 13:57 37.40269 32.55191 37956 ft 407 kts 307°
2026-05-01 13:58 37.44072 32.49906 37971 ft 407 kts 307°
2026-05-01 13:58 37.47876 32.44618 37965 ft 408 kts 307°
2026-05-01 13:59 37.51680 32.39314 37970 ft 408 kts 307°
2026-05-01 13:59 37.55509 32.33974 37967 ft 408 kts 307°
2026-05-01 14:00 37.59317 32.28655 37970 ft 408 kts 307°
2026-05-01 14:00 37.63118 32.23331 37962 ft 408 kts 307°
2026-05-01 14:01 37.66919 32.17998 37969 ft 409 kts 307°
2026-05-01 14:01 37.70717 32.12662 37960 ft 409 kts 307°
2026-05-01 14:02 37.74522 32.07312 37962 ft 409 kts 307°
2026-05-01 14:02 37.78319 32.01955 37956 ft 409 kts 307°
2026-05-01 14:03 37.82118 31.96599 37959 ft 409 kts 307°
2026-05-01 14:03 37.85918 31.91235 37961 ft 409 kts 307°
2026-05-01 14:04 37.89715 31.85869 37960 ft 409 kts 307°
2026-05-01 14:04 37.93505 31.80493 37962 ft 409 kts 307°
2026-05-01 14:05 37.97292 31.75104 37970 ft 409 kts 307°
2026-05-01 14:05 38.01072 31.69716 37979 ft 409 kts 307°
2026-05-01 14:06 38.04852 31.64331 37980 ft 409 kts 307°
2026-05-01 14:06 38.06128 31.62506 37980 ft 409 kts 307°
2026-05-01 14:07 38.12427 31.53489 37981 ft 410 kts 307°
2026-05-01 14:08 38.18096 31.45373 37984 ft 409 kts 306°
2026-05-01 14:08 38.21868 31.39957 37985 ft 409 kts 306°
2026-05-01 14:09 38.25628 31.34540 37989 ft 409 kts 306°
2026-05-01 14:09 38.29390 31.29106 37992 ft 409 kts 306°